Location: Burla
(50.9568°N, 10.4983°E)
Time: 22:04:47
(UTC+00:00)

Cosmos 1408 Rocket - Pass Details

Date: 18 January 2026
Orbit: 594 x 623 km, 82.6° (Epoch: 18 February)

Event Time Altitude Azimuth Distance (km) Brightness Sun altitude
Exits shadow 05:28:08 25° 257° (WSW) 1,219 4.5 -15.8°
Maximum altitude 05:29:27 30° 290° (WNW) 1,083 4.2 -15.6°
Drops below altitude 10° 05:33:17 10° 352° (N) 1,951 5.9 -15.1°
Sets 05:35:43 0° 3° (N) 2,856 6.9 -14.7°
